| time (UTC) | temp F | wind direction | speed knots | gust knots | rain 1hr in | rain 24hr in | rain mn in | humidity % | barometer mb |
| 20260510022515 | 78 | 0 | 0.0 | 0.9 | 0.00 | 0.00 | 0.00 | 78 | 1008.9 |
| 20260510022015 | 79 | 0 | 0.0 | 0.9 | 0.00 | 0.00 | 0.00 | 77 | 1008.8 |
| 20260510021536 | 79 | 0 | 0.0 | 0.9 | 0.00 | 0.00 | 0.00 | 77 | 1008.6 |
| 20260510021019 | 79 | 147 | 0.0 | 0.9 | 0.00 | 0.00 | 0.00 | 76 | 1008.4 |
| 20260510020518 | 79 | 0 | 0.0 | 1.7 | 0.00 | 0.00 | 0.00 | 76 | 1008.4 |
| 20260510020035 | 80 | 0 | 0.0 | 3.5 | 0.00 | 0.00 | 0.00 | 75 | 1008.4 |
| 20260510015518 | 80 | 0 | 0.0 | 3.5 | 0.00 | 0.00 | 0.00 | 75 | 1008.3 |
| 20260510015017 | 80 | 111 | 0.0 | 3.5 | 0.00 | 0.00 | 0.00 | 76 | 1008.3 |
| 20260510014534 | 80 | 142 | 0.9 | 7.8 | 0.00 | 0.00 | 0.00 | 77 | 1008.2 |
| 20260510014019 | 80 | 176 | 1.7 | 7.8 | 0.00 | 0.00 | 0.00 | 79 | 1008.2 |
| 20260510013519 | 80 | 144 | 1.7 | 6.1 | 0.00 | 0.00 | 0.00 | 81 | 1008.1 |
| 20260510013047 | 80 | 0 | 0.0 | 0.9 | 0.00 | 0.00 | 0.00 | 84 | 1008.0 |
| 20260510012518 | 80 | 0 | 0.0 | 0.0 | 0.00 | 0.00 | 0.00 | 83 | 1007.9 |
| 20260510012016 | 81 | 0 | 0.0 | 0.0 | 0.00 | 0.00 | 0.00 | 83 | 1007.8 |
| 20260510011539 | 81 | 0 | 0.0 | 0.0 | 0.00 | 0.00 | 0.00 | 82 | 1007.7 |
| 20260510011018 | 82 | 0 | 0.0 | 0.0 | 0.00 | 0.00 | 0.00 | 82 | 1007.7 |
| 20260510010515 | 82 | 0 | 0.0 | 0.0 | 0.00 | 0.00 | 0.00 | 82 | 1007.6 |
| 20260510010056 | 82 | 0 | 0.0 | 0.0 | 0.00 | 0.00 | 0.00 | 82 | 1007.6 |
| 20260510005518 | 82 | 0 | 0.0 | 0.0 | 0.00 | 0.00 | 0.00 | 81 | 1007.4 |
| 20260510005015 | 82 | 0 | 0.0 | 0.0 | 0.00 | 0.00 | 0.00 | 80 | 1007.3 |
| 20260510004537 | 82 | 0 | 0.0 | 0.0 | 0.00 | 0.00 | 0.00 | 81 | 1007.2 |
| 20260510004022 | 82 | 0 | 0.0 | 0.0 | 0.00 | 0.00 | 0.00 | 81 | 1007.2 |
| 20260510003518 | 82 | 0 | 0.0 | 0.9 | 0.00 | 0.00 | 0.00 | 80 | 1007.2 |
| 20260510003033 | 82 | 0 | 0.0 | 0.9 | 0.00 | 0.00 | 0.00 | 80 | 1007.4 |
| 20260510002526 | 82 | 0 | 0.0 | 0.9 | 0.00 | 0.00 | 0.00 | 81 | 1007.2 |
| 20260510002018 | 82 | 0 | 0.0 | 0.9 | 0.00 | 0.00 | 0.00 | 81 | 1007.1 |
| 20260510001534 | 82 | 0 | 0.0 | 0.9 | 0.00 | 0.00 | 0.00 | 82 | 1007.0 |
| 20260510001016 | 82 | 0 | 0.0 | 0.0 | 0.00 | 0.00 | 0.00 | 83 | 1007.1 |
| 20260510000519 | 82 | 0 | 0.0 | 0.0 | 0.00 | 0.00 | 0.00 | 82 | 1006.9 |
| 20260510000042 | 82 | 0 | 0.0 | 0.0 | 0.00 | 0.00 | 0.00 | 82 | 1006.8 |
| 20260509235518 | 82 | 0 | 0.0 | 0.0 | 0.00 | 0.00 | 0.00 | 81 | 1006.9 |
| 20260509235018 | 83 | 0 | 0.0 | 0.0 | 0.00 | 0.00 | 0.00 | 82 | 1006.9 |
| 20260509234538 | 83 | 0 | 0.0 | 0.0 | 0.00 | 0.00 | 0.00 | 81 | 1007.0 |
| 20260509234016 | 83 | 0 | 0.0 | 0.0 | 0.00 | 0.00 | 0.00 | 80 | 1007.0 |
| 20260509233518 | 83 | 0 | 0.0 | 0.0 | 0.00 | 0.00 | 0.00 | 80 | 1007.0 |
| 20260509233036 | 83 | 0 | 0.0 | 0.9 | 0.00 | 0.00 | 0.00 | 79 | 1007.0 |
| 20260509232516 | 84 | 0 | 0.0 | 0.9 | 0.00 | 0.00 | 0.00 | 79 | 1007.1 |
| 20260509232016 | 85 | 0 | 0.0 | 0.9 | 0.00 | 0.00 | 0.00 | 78 | 1007.0 |
| 20260509231536 | 85 | 0 | 0.0 | 0.0 | 0.00 | 0.00 | 0.00 | 77 | 1007.1 |
| 20260509231015 | 86 | 0 | 0.0 | 0.0 | 0.00 | 0.00 | 0.00 | 76 | 1007.0 |
| 20260509230519 | 86 | 0 | 0.0 | 0.9 | 0.00 | 0.00 | 0.00 | 75 | 1007.0 |
| 20260509230034 | 86 | 0 | 0.0 | 0.9 | 0.00 | 0.00 | 0.00 | 75 | 1006.9 |
| 20260509225519 | 86 | 0 | 0.0 | 0.9 | 0.00 | 0.00 | 0.00 | 74 | 1006.8 |
| 20260509225015 | 87 | 0 | 0.0 | 0.0 | 0.00 | 0.00 | 0.00 | 74 | 1006.9 |
| 20260509224534 | 87 | 0 | 0.0 | 1.7 | 0.00 | 0.00 | 0.00 | 73 | 1006.9 |
| 20260509224015 | 87 | 0 | 0.0 | 1.7 | 0.00 | 0.00 | 0.00 | 72 | 1006.9 |
| 20260509223516 | 87 | 0 | 0.0 | 1.7 | 0.00 | 0.00 | 0.00 | 71 | 1006.8 |
| 20260509223034 | 88 | 0 | 0.0 | 1.7 | 0.00 | 0.00 | 0.00 | 70 | 1006.9 |
| 20260509222515 | 89 | 0 | 0.0 | 1.7 | 0.00 | 0.00 | 0.00 | 69 | 1006.7 |
| 20260509222015 | 89 | 44 | 0.0 | 1.7 | 0.00 | 0.00 | 0.00 | 68 | 1006.6 |
| 20260509221600 | 91 | 0 | 0.0 | 0.9 | 0.00 | 0.00 | 0.00 | 68 | 1006.6 |
| 20260509221015 | 91 | 0 | 0.0 | 0.9 | 0.00 | 0.00 | 0.00 | 67 | 1006.5 |
| 20260509220516 | 90 | 0 | 0.0 | 0.9 | 0.00 | 0.00 | 0.00 | 68 | 1006.7 |
| 20260509220036 | 89 | 0 | 0.0 | 0.0 | 0.00 | 0.00 | 0.00 | 72 | 1006.7 |
| 20260509215516 | 88 | 0 | 0.0 | 0.0 | 0.00 | 0.00 | 0.00 | 74 | 1006.7 |
| 20260509215019 | 89 | 0 | 0.0 | 0.0 | 0.00 | 0.00 | 0.00 | 73 | 1006.7 |
| 20260509214536 | 89 | 0 | 0.0 | 0.0 | 0.00 | 0.00 | 0.00 | 70 | 1006.8 |
| 20260509214015 | 89 | 0 | 0.0 | 0.0 | 0.00 | 0.00 | 0.00 | 69 | 1006.7 |
| 20260509213518 | 90 | 0 | 0.0 | 0.9 | 0.00 | 0.00 | 0.00 | 70 | 1006.8 |
| 20260509213035 | 89 | 0 | 0.0 | 0.9 | 0.00 | 0.00 | 0.00 | 69 | 1006.7 |
| 20260509212521 | 89 | 0 | 0.0 | 0.9 | 0.00 | 0.00 | 0.00 | 70 | 1006.7 |
| 20260509212015 | 87 | 0 | 0.0 | 1.7 | 0.00 | 0.00 | 0.00 | 72 | 1006.7 |
| 20260509211545 | 86 | 0 | 0.0 | 1.7 | 0.00 | 0.00 | 0.00 | 75 | 1006.8 |
| 20260509211018 | 86 | 0 | 0.0 | 0.0 | 0.00 | 0.00 | 0.00 | 75 | 1006.9 |
| 20260509210519 | 86 | 0 | 0.0 | 0.9 | 0.00 | 0.00 | 0.00 | 75 | 1006.9 |
| 20260509210034 | 85 | 0 | 0.0 | 0.9 | 0.00 | 0.00 | 0.00 | 74 | 1007.1 |
| 20260509205518 | 85 | 0 | 0.0 | 0.9 | 0.00 | 0.00 | 0.00 | 76 | 1007.2 |
| 20260509205015 | 86 | 0 | 0.0 | 0.9 | 0.00 | 0.00 | 0.00 | 74 | 1007.1 |
| 20260509204535 | 86 | 0 | 0.0 | 0.9 | 0.00 | 0.00 | 0.00 | 73 | 1007.3 |
| 20260509204019 | 86 | 0 | 0.0 | 0.0 | 0.00 | 0.00 | 0.00 | 73 | 1007.3 |
| 20260509203515 | 86 | 0 | 0.0 | 0.9 | 0.00 | 0.00 | 0.00 | 75 | 1007.3 |
| 20260509203041 | 86 | 0 | 0.0 | 0.9 | 0.00 | 0.00 | 0.00 | 73 | 1007.4 |
| 20260509202516 | 86 | 0 | 0.0 | 2.6 | 0.00 | 0.00 | 0.00 | 73 | 1007.4 |
| 20260509202016 | 86 | 0 | 0.0 | 2.6 | 0.00 | 0.00 | 0.00 | 73 | 1007.4 |
| 20260509201535 | 86 | 188 | 0.9 | 2.6 | 0.00 | 0.00 | 0.00 | 72 | 1007.4 |
| 20260509201021 | 87 | 0 | 0.0 | 3.5 | 0.00 | 0.00 | 0.00 | 72 | 1007.4 |
| 20260509200515 | 88 | 121 | 0.9 | 3.5 | 0.00 | 0.00 | 0.00 | 69 | 1007.4 |
| 20260509200044 | 88 | 0 | 0.0 | 1.7 | 0.00 | 0.00 | 0.00 | 71 | 1007.5 |
| 20260509195520 | 88 | 0 | 0.0 | 1.7 | 0.00 | 0.00 | 0.00 | 70 | 1007.5 |
| 20260509195015 | 87 | 0 | 0.0 | 1.7 | 0.00 | 0.00 | 0.00 | 72 | 1007.6 |
| 20260509194538 | 87 | 0 | 0.0 | 1.7 | 0.00 | 0.00 | 0.00 | 71 | 1007.7 |
| 20260509194016 | 87 | 5 | 0.0 | 2.6 | 0.00 | 0.00 | 0.00 | 77 | 1007.6 |
| 20260509193521 | 87 | 0 | 0.0 | 2.6 | 0.00 | 0.00 | 0.00 | 73 | 1007.8 |
| 20260509193044 | 87 | 338 | 0.0 | 2.6 | 0.00 | 0.00 | 0.00 | 74 | 1007.9 |
| 20260509192516 | 86 | 258 | 0.0 | 0.9 | 0.00 | 0.00 | 0.00 | 75 | 1007.9 |
| 20260509192027 | 86 | 0 | 0.0 | 1.7 | 0.00 | 0.00 | 0.00 | 74 | 1007.9 |
| 20260509191548 | 86 | 0 | 0.0 | 1.7 | 0.00 | 0.00 | 0.00 | 74 | 1007.9 |
| 20260509191019 | 86 | 0 | 0.0 | 1.7 | 0.00 | 0.00 | 0.00 | 73 | 1007.9 |
| 20260509190521 | 86 | 0 | 0.0 | 2.6 | 0.00 | 0.00 | 0.00 | 74 | 1007.9 |
| 20260509190044 | 86 | 0 | 0.0 | 2.6 | 0.00 | 0.00 | 0.00 | 74 | 1008.1 |
| 20260509185518 | 86 | 11 | 0.9 | 3.5 | 0.00 | 0.00 | 0.00 | 74 | 1008.2 |
| 20260509185016 | 85 | 0 | 0.9 | 3.5 | 0.00 | 0.00 | 0.00 | 73 | 1008.3 |
| 20260509184541 | 85 | 206 | 0.9 | 1.7 | 0.00 | 0.00 | 0.00 | 77 | 1008.4 |
| 20260509184015 | 85 | 0 | 0.0 | 3.5 | 0.00 | 0.00 | 0.00 | 75 | 1008.5 |
| 20260509183516 | 85 | 0 | 0.0 | 6.1 | 0.00 | 0.00 | 0.00 | 74 | 1008.4 |
| 20260509183043 | 85 | 76 | 0.9 | 6.1 | 0.00 | 0.00 | 0.00 | 73 | 1008.5 |
| 20260509182518 | 86 | 147 | 2.6 | 6.1 | 0.00 | 0.00 | 0.00 | 73 | 1008.5 |
| 20260509182019 | 86 | 173 | 1.7 | 6.1 | 0.00 | 0.00 | 0.00 | 73 | 1008.6 |
| 20260509181542 | 85 | 107 | 0.9 | 3.5 | 0.00 | 0.00 | 0.00 | 74 | 1008.8 |
| 20260509181030 | 85 | 129 | 0.0 | 2.6 | 0.00 | 0.00 | 0.00 | 77 | 1008.8 |
| 20260509180515 | 84 | 179 | 0.0 | 1.7 | 0.00 | 0.00 | 0.00 | 76 | 1008.8 |
| 20260509180037 | 84 | 0 | 0.0 | 1.7 | 0.00 | 0.00 | 0.00 | 77 | 1008.8 |
| 20260509175515 | 85 | 155 | 0.0 | 1.7 | 0.00 | 0.00 | 0.00 | 76 | 1009.0 |
| 20260509175023 | 84 | 0 | 0.0 | 1.7 | 0.00 | 0.00 | 0.00 | 78 | 1009.0 |
| 20260509174535 | 84 | 0 | 0.0 | 1.7 | 0.00 | 0.00 | 0.00 | 79 | 1009.0 |
| 20260509174018 | 84 | 0 | 0.0 | 1.7 | 0.00 | 0.00 | 0.00 | 79 | 1009.0 |
| 20260509173518 | 84 | 0 | 0.0 | 1.7 | 0.00 | 0.00 | 0.00 | 79 | 1009.1 |
| 20260509173050 | 84 | 0 | 0.0 | 1.7 | 0.00 | 0.00 | 0.00 | 77 | 1009.1 |
| 20260509172519 | 84 | 0 | 0.0 | 1.7 | 0.00 | 0.00 | 0.00 | 78 | 1009.1 |
| 20260509172019 | 84 | 0 | 0.0 | 1.7 | 0.00 | 0.00 | 0.00 | 79 | 1009.1 |
| 20260509171541 | 84 | 162 | 0.0 | 1.7 | 0.00 | 0.00 | 0.00 | 78 | 1009.1 |
| 20260509171015 | 84 | 0 | 0.0 | 1.7 | 0.00 | 0.00 | 0.00 | 79 | 1009.1 |
| 20260509170518 | 83 | 0 | 0.0 | 2.6 | 0.00 | 0.00 | 0.00 | 79 | 1009.2 |
| 20260509170040 | 83 | 0 | 0.0 | 2.6 | 0.00 | 0.00 | 0.00 | 81 | 1009.3 |
| 20260509165518 | 83 | 355 | 0.0 | 2.6 | 0.00 | 0.00 | 0.00 | 81 | 1009.4 |
| 20260509165015 | 82 | 0 | 0.0 | 2.6 | 0.00 | 0.00 | 0.00 | 81 | 1009.4 |
| 20260509164547 | 82 | 0 | 0.0 | 2.6 | 0.00 | 0.00 | 0.00 | 80 | 1009.3 |
| 20260509164019 | 82 | 346 | 0.0 | 2.6 | 0.00 | 0.00 | 0.00 | 83 | 1009.3 |
| 20260509163516 | 81 | 0 | 0.0 | 1.7 | 0.00 | 0.00 | 0.00 | 85 | 1009.2 |
| 20260509163047 | 81 | 0 | 0.0 | 1.7 | 0.00 | 0.00 | 0.00 | 83 | 1009.2 |
| 20260509162516 | 80 | 244 | 0.9 | 1.7 | 0.00 | 0.00 | 0.00 | 84 | 1009.5 |
| 20260509162022 | 80 | 0 | 0.0 | 1.7 | 0.00 | 0.00 | 0.00 | 84 | 1009.6 |
| 20260509161535 | 80 | 0 | 0.0 | 1.7 | 0.00 | 0.00 | 0.00 | 84 | 1009.4 |
| 20260509161018 | 80 | 246 | 0.0 | 1.7 | 0.00 | 0.00 | 0.00 | 85 | 1009.5 |
| 20260509160516 | 80 | 286 | 0.0 | 5.2 | 0.00 | 0.00 | 0.00 | 88 | 1009.5 |
| 20260509160032 | 79 | 355 | 0.9 | 5.2 | 0.00 | 0.00 | 0.00 | 88 | 1009.4 |
| 20260509155515 | 79 | 168 | 0.9 | 3.5 | 0.00 | 0.00 | 0.00 | 87 | 1009.4 |
| 20260509155021 | 79 | 0 | 0.0 | 3.5 | 0.00 | 0.00 | 0.00 | 88 | 1009.5 |
| 20260509154542 | 78 | 239 | 1.7 | 4.3 | 0.00 | 0.00 | 0.00 | 89 | 1009.4 |
| 20260509154019 | 78 | 180 | 0.9 | 5.2 | 0.00 | 0.00 | 0.00 | 90 | 1009.4 |
| 20260509153515 | 77 | 144 | 1.7 | 5.2 | 0.00 | 0.00 | 0.00 | 90 | 1009.5 |
| 20260509153039 | 77 | 0 | 0.9 | 5.2 | 0.00 | 0.00 | 0.00 | 90 | 1009.6 |
| 20260509152519 | 77 | 173 | 1.7 | 5.2 | 0.00 | 0.00 | 0.00 | 90 | 1009.4 |
| 20260509152016 | 76 | 240 | 0.0 | 1.7 | 0.00 | 0.00 | 0.00 | 91 | 1009.4 |
| 20260509151538 | 76 | 157 | 0.0 | 1.7 | 0.00 | 0.00 | 0.00 | 91 | 1009.4 |
| 20260509151019 | 76 | 157 | 0.0 | 2.6 | 0.00 | 0.00 | 0.00 | 92 | 1009.5 |
| 20260509150517 | 76 | 0 | 0.0 | 2.6 | 0.00 | 0.00 | 0.00 | 92 | 1009.4 |
| 20260509150035 | 76 | 126 | 0.0 | 2.6 | 0.00 | 0.00 | 0.00 | 93 | 1009.5 |
| 20260509145516 | 76 | 0 | 0.0 | 2.6 | 0.00 | 0.00 | 0.00 | 93 | 1009.4 |
| 20260509145018 | 75 | 0 | 0.9 | 2.6 | 0.00 | 0.00 | 0.00 | 93 | 1009.3 |
| 20260509144544 | 75 | 0 | 0.0 | 2.6 | 0.00 | 0.00 | 0.00 | 94 | 1009.3 |
| 20260509144016 | 75 | 0 | 0.0 | 0.0 | 0.00 | 0.00 | 0.00 | 94 | 1009.1 |
| 20260509143516 | 75 | 0 | 0.0 | 0.0 | 0.00 | 0.00 | 0.00 | 94 | 1009.2 |
| 20260509143035 | 75 | 0 | 0.0 | 0.0 | 0.00 | 0.00 | 0.00 | 95 | 1009.1 |
| 20260509142515 | 75 | 0 | 0.0 | 0.0 | 0.00 | 0.00 | 0.00 | 95 | 1009.0 |
| 20260509142021 | 74 | 0 | 0.0 | 0.0 | 0.00 | 0.00 | 0.00 | 95 | 1008.9 |
| 20260509141546 | 74 | 0 | 0.0 | 0.0 | 0.00 | 0.00 | 0.00 | 95 | 1008.7 |
| 20260509141016 | 74 | 0 | 0.0 | 0.0 | 0.00 | 0.00 | 0.00 | 95 | 1008.8 |
| 20260509140515 | 74 | 0 | 0.0 | 0.0 | 0.00 | 0.00 | 0.00 | 95 | 1008.7 |
| 20260509140035 | 74 | 0 | 0.0 | 0.9 | 0.00 | 0.00 | 0.00 | 95 | 1009.0 |
| 20260509135520 | 74 | 0 | 0.0 | 0.9 | 0.00 | 0.00 | 0.00 | 95 | 1009.0 |
| 20260509135020 | 74 | 0 | 0.0 | 0.0 | 0.00 | 0.00 | 0.00 | 95 | 1009.2 |
| 20260509134549 | 74 | 0 | 0.0 | 0.0 | 0.00 | 0.00 | 0.00 | 96 | 1009.3 |
| 20260509134016 | 74 | 0 | 0.0 | 0.0 | 0.00 | 0.00 | 0.00 | 96 | 1009.1 |
| 20260509133516 | 74 | 0 | 0.0 | 0.0 | 0.00 | 0.00 | 0.00 | 96 | 1009.3 |
| 20260509133037 | 74 | 0 | 0.0 | 0.0 | 0.00 | 0.00 | 0.00 | 96 | 1009.4 |
| 20260509132515 | 74 | 0 | 0.0 | 0.0 | 0.00 | 0.00 | 0.00 | 96 | 1009.3 |
| 20260509132015 | 74 | 0 | 0.0 | 0.0 | 0.00 | 0.00 | 0.00 | 96 | 1009.4 |
| 20260509131552 | 74 | 0 | 0.0 | 0.0 | 0.00 | 0.00 | 0.00 | 96 | 1009.4 |
| 20260509131015 | 74 | 0 | 0.0 | 0.0 | 0.00 | 0.00 | 0.00 | 96 | 1009.4 |
| 20260509130518 | 73 | 0 | 0.0 | 0.0 | 0.00 | 0.00 | 0.00 | 96 | 1009.4 |
| 20260509130047 | 73 | 0 | 0.0 | 0.0 | 0.00 | 0.00 | 0.00 | 96 | 1009.3 |
| 20260509125516 | 73 | 0 | 0.0 | 0.0 | 0.00 | 0.00 | 0.00 | 96 | 1009.4 |
| 20260509125022 | 73 | 0 | 0.0 | 0.0 | 0.00 | 0.00 | 0.00 | 96 | 1009.4 |
| 20260509124544 | 73 | 0 | 0.0 | 0.0 | 0.00 | 0.00 | 0.00 | 96 | 1009.4 |
| 20260509124018 | 73 | 0 | 0.0 | 0.0 | 0.00 | 0.00 | 0.00 | 96 | 1009.3 |
| 20260509123518 | 73 | 0 | 0.0 | 0.0 | 0.00 | 0.00 | 0.00 | 96 | 1009.4 |
| 20260509123048 | 73 | 0 | 0.0 | 0.0 | 0.00 | 0.00 | 0.00 | 96 | 1009.4 |
| 20260509122516 | 73 | 0 | 0.0 | 0.0 | 0.00 | 0.00 | 0.00 | 96 | 1009.3 |
| 20260509122018 | 73 | 0 | 0.0 | 0.0 | 0.00 | 0.00 | 0.00 | 96 | 1009.2 |
| 20260509121537 | 73 | 0 | 0.0 | 0.0 | 0.00 | 0.00 | 0.00 | 96 | 1009.2 |
| 20260509121019 | 73 | 0 | 0.0 | 0.0 | 0.00 | 0.00 | 0.00 | 96 | 1009.1 |
| 20260509120519 | 73 | 0 | 0.0 | 0.0 | 0.00 | 0.00 | 0.00 | 96 | 1009.1 |
| 20260509120034 | 73 | 0 | 0.0 | 0.0 | 0.00 | 0.00 | 0.00 | 96 | 1009.2 |
| 20260509115515 | 73 | 0 | 0.0 | 0.0 | 0.00 | 0.01 | 0.00 | 96 | 1009.1 |
| 20260509115021 | 73 | 0 | 0.0 | 2.6 | 0.00 | 0.01 | 0.00 | 96 | 1008.9 |
| 20260509114543 | 73 | 0 | 0.0 | 2.6 | 0.00 | 0.01 | 0.00 | 96 | 1008.8 |
| 20260509114016 | 73 | 117 | 0.9 | 2.6 | 0.00 | 0.01 | 0.00 | 96 | 1008.7 |
| 20260509113516 | 73 | 121 | 0.0 | 2.6 | 0.00 | 0.01 | 0.00 | 96 | 1008.5 |
| 20260509113038 | 73 | 0 | 0.0 | 1.7 | 0.00 | 0.01 | 0.00 | 96 | 1008.6 |
| 20260509112519 | 72 | 0 | 0.0 | 0.0 | 0.00 | 0.01 | 0.00 | 95 | 1008.6 |
| 20260509112016 | 72 | 0 | 0.0 | 0.0 | 0.00 | 0.01 | 0.00 | 95 | 1008.6 |
| 20260509111535 | 72 | 0 | 0.0 | 0.0 | 0.00 | 0.01 | 0.00 | 95 | 1008.5 |
| 20260509111020 | 72 | 0 | 0.0 | 0.0 | 0.00 | 0.01 | 0.00 | 95 | 1008.6 |
| 20260509110516 | 72 | 0 | 0.0 | 0.0 | 0.00 | 0.01 | 0.00 | 95 | 1008.7 |
| 20260509110039 | 73 | 0 | 0.0 | 0.0 | 0.00 | 0.01 | 0.00 | 95 | 1008.7 |
| 20260509105516 | 73 | 0 | 0.0 | 0.0 | 0.00 | 0.01 | 0.00 | 95 | 1008.7 |
| 20260509105019 | 73 | 0 | 0.0 | 0.0 | 0.00 | 0.01 | 0.00 | 95 | 1008.4 |
| 20260509104542 | 73 | 0 | 0.0 | 0.0 | 0.00 | 0.01 | 0.00 | 95 | 1008.5 |
| 20260509104015 | 73 | 0 | 0.0 | 0.9 | 0.00 | 0.01 | 0.00 | 95 | 1008.8 |
| 20260509103515 | 73 | 0 | 0.0 | 1.7 | 0.00 | 0.01 | 0.00 | 95 | 1009.0 |
| 20260509103041 | 73 | 0 | 0.0 | 1.7 | 0.00 | 0.01 | 0.00 | 95 | 1009.0 |
| 20260509102520 | 73 | 0 | 0.0 | 0.0 | 0.00 | 0.01 | 0.00 | 95 | 1008.8 |
| 20260509102020 | 73 | 0 | 0.0 | 0.0 | 0.00 | 0.01 | 0.00 | 95 | 1008.8 |
| 20260509101538 | 73 | 0 | 0.0 | 0.0 | 0.00 | 0.01 | 0.00 | 95 | 1008.7 |
| 20260509101016 | 73 | 0 | 0.0 | 0.0 | 0.00 | 0.01 | 0.00 | 95 | 1008.5 |
| 20260509100517 | 73 | 0 | 0.0 | 0.0 | 0.00 | 0.01 | 0.00 | 95 | 1008.5 |
| 20260509100038 | 73 | 0 | 0.0 | 0.0 | 0.00 | 0.01 | 0.00 | 95 | 1008.5 |
| 20260509095515 | 73 | 0 | 0.0 | 0.0 | 0.00 | 0.01 | 0.00 | 95 | 1008.3 |
| 20260509095016 | 73 | 0 | 0.0 | 0.0 | 0.00 | 0.01 | 0.00 | 95 | 1008.1 |
| 20260509094534 | 73 | 0 | 0.0 | 0.0 | 0.00 | 0.01 | 0.00 | 95 | 1008.2 |
| 20260509094016 | 73 | 0 | 0.0 | 0.0 | 0.00 | 0.01 | 0.00 | 95 | 1008.3 |
| 20260509093520 | 73 | 0 | 0.0 | 0.0 | 0.00 | 0.01 | 0.00 | 95 | 1008.3 |
| 20260509093035 | 73 | 0 | 0.0 | 0.0 | 0.00 | 0.01 | 0.00 | 95 | 1008.3 |
| 20260509092518 | 73 | 0 | 0.0 | 0.0 | 0.00 | 0.01 | 0.00 | 95 | 1008.5 |
| 20260509092016 | 73 | 0 | 0.0 | 0.0 | 0.00 | 0.01 | 0.00 | 95 | 1008.6 |
| 20260509091538 | 73 | 0 | 0.0 | 0.0 | 0.00 | 0.01 | 0.00 | 95 | 1008.6 |
| 20260509091019 | 73 | 0 | 0.0 | 0.0 | 0.00 | 0.01 | 0.00 | 95 | 1008.5 |
| 20260509090517 | 73 | 0 | 0.0 | 0.0 | 0.00 | 0.01 | 0.00 | 96 | 1008.7 |
| 20260509090035 | 73 | 0 | 0.0 | 0.0 | 0.00 | 0.01 | 0.00 | 95 | 1008.7 |
| 20260509085517 | 73 | 0 | 0.0 | 0.0 | 0.00 | 0.01 | 0.00 | 96 | 1008.7 |
| 20260509085016 | 73 | 0 | 0.0 | 0.0 | 0.00 | 0.01 | 0.00 | 95 | 1008.7 |
| 20260509084539 | 73 | 0 | 0.0 | 0.0 | 0.00 | 0.01 | 0.00 | 95 | 1008.8 |
| 20260509084016 | 73 | 0 | 0.0 | 0.0 | 0.00 | 0.01 | 0.00 | 95 | 1008.7 |
| 20260509083521 | 73 | 0 | 0.0 | 0.0 | 0.00 | 0.01 | 0.00 | 95 | 1008.7 |
| 20260509083043 | 73 | 0 | 0.0 | 0.0 | 0.00 | 0.01 | 0.00 | 95 | 1008.6 |
| 20260509082516 | 73 | 0 | 0.0 | 0.0 | 0.00 | 0.01 | 0.00 | 95 | 1008.8 |
| 20260509082016 | 73 | 0 | 0.0 | 0.0 | 0.00 | 0.01 | 0.00 | 95 | 1008.7 |
| 20260509081541 | 73 | 0 | 0.0 | 0.0 | 0.00 | 0.01 | 0.00 | 96 | 1008.8 |
| 20260509081021 | 73 | 0 | 0.0 | 0.0 | 0.00 | 0.01 | 0.00 | 96 | 1008.9 |
| 20260509080515 | 73 | 0 | 0.0 | 0.0 | 0.00 | 0.01 | 0.00 | 96 | 1008.8 |
| 20260509080032 | 73 | 0 | 0.0 | 0.0 | 0.00 | 0.01 | 0.00 | 95 | 1008.8 |
| 20260509075517 | 73 | 0 | 0.0 | 0.0 | 0.00 | 0.01 | 0.00 | 96 | 1008.8 |
| 20260509075016 | 72 | 0 | 0.0 | 0.0 | 0.00 | 0.01 | 0.00 | 95 | 1008.8 |
| 20260509074540 | 72 | 0 | 0.0 | 0.0 | 0.00 | 0.01 | 0.00 | 95 | 1008.7 |
| 20260509074016 | 72 | 0 | 0.0 | 0.0 | 0.00 | 0.01 | 0.00 | 95 | 1008.6 |
| 20260509073516 | 72 | 0 | 0.0 | 0.0 | 0.00 | 0.01 | 0.00 | 95 | 1008.4 |
| 20260509073037 | 72 | 0 | 0.0 | 0.0 | 0.00 | 0.01 | 0.00 | 95 | 1008.5 |
| 20260509072525 | 72 | 0 | 0.0 | 0.9 | 0.00 | 0.01 | 0.00 | 95 | 1008.5 |
| 20260509072023 | 72 | 0 | 0.0 | 0.9 | 0.00 | 0.01 | 0.00 | 95 | 1008.5 |
| 20260509071538 | 72 | 0 | 0.0 | 2.6 | 0.00 | 0.01 | 0.00 | 95 | 1008.5 |
| 20260509071016 | 72 | 0 | 0.0 | 2.6 | 0.00 | 0.01 | 0.00 | 95 | 1008.6 |
| 20260509070516 | 72 | 0 | 0.0 | 2.6 | 0.00 | 0.01 | 0.00 | 95 | 1008.7 |
| 20260509070035 | 72 | 198 | 0.0 | 2.6 | 0.00 | 0.01 | 0.00 | 95 | 1008.6 |
| 20260509065515 | 72 | 0 | 0.0 | 3.5 | 0.00 | 0.01 | 0.00 | 95 | 1008.7 |
| 20260509065019 | 72 | 168 | 0.9 | 3.5 | 0.00 | 0.01 | 0.00 | 95 | 1008.6 |
| 20260509064538 | 72 | 0 | 0.9 | 3.5 | 0.00 | 0.01 | 0.00 | 95 | 1008.6 |
| 20260509064022 | 72 | 163 | 0.9 | 3.5 | 0.00 | 0.01 | 0.00 | 95 | 1008.5 |
| 20260509063516 | 72 | 211 | 0.9 | 3.5 | 0.00 | 0.01 | 0.00 | 95 | 1008.5 |
| 20260509063040 | 72 | 150 | 0.0 | 4.3 | 0.00 | 0.01 | 0.00 | 95 | 1008.5 |
| 20260509062516 | 72 | 0 | 0.9 | 4.3 | 0.00 | 0.01 | 0.00 | 95 | 1008.6 |
| 20260509062017 | 72 | 180 | 0.0 | 3.5 | 0.00 | 0.01 | 0.00 | 95 | 1008.7 |
| 20260509061537 | 72 | 0 | 0.0 | 3.5 | 0.00 | 0.01 | 0.00 | 95 | 1008.6 |
| 20260509061016 | 72 | 142 | 0.9 | 3.5 | 0.00 | 0.01 | 0.00 | 95 | 1008.9 |
| 20260509060520 | 72 | 0 | 0.0 | 2.6 | 0.00 | 0.01 | 0.00 | 95 | 1009.0 |
| 20260509060036 | 72 | 0 | 0.0 | 1.7 | 0.00 | 0.01 | 0.00 | 95 | 1009.1 |
| 20260509055516 | 72 | 0 | 0.0 | 3.5 | 0.00 | 0.01 | 0.00 | 95 | 1009.2 |
| 20260509055016 | 72 | 0 | 0.0 | 3.5 | 0.00 | 0.01 | 0.00 | 95 | 1009.1 |
| 20260509054601 | 72 | 180 | 0.0 | 3.5 | 0.00 | 0.01 | 0.00 | 95 | 1009.2 |
| 20260509054018 | 72 | 180 | 0.9 | 2.6 | 0.00 | 0.01 | 0.00 | 95 | 1009.0 |
| 20260509053521 | 72 | 167 | 0.0 | 3.5 | 0.00 | 0.01 | 0.00 | 95 | 1009.0 |
| 20260509053135 | 72 | 0 | 0.9 | 3.5 | 0.00 | 0.01 | 0.00 | 95 | 1009.1 |
| 20260509052520 | 72 | 185 | 0.0 | 1.7 | 0.00 | 0.01 | 0.00 | 95 | 1009.1 |
| 20260509052019 | 72 | 0 | 0.0 | 1.7 | 0.00 | 0.01 | 0.00 | 95 | 1009.1 |
| 20260509051542 | 72 | 0 | 0.0 | 1.7 | 0.00 | 0.01 | 0.00 | 95 | 1009.3 |
| 20260509051016 | 72 | 175 | 0.0 | 2.6 | 0.00 | 0.01 | 0.00 | 95 | 1009.2 |
| 20260509050516 | 72 | 112 | 0.0 | 4.3 | 0.00 | 0.01 | 0.00 | 94 | 1009.1 |
| 20260509050045 | 72 | 165 | 0.9 | 4.3 | 0.00 | 0.01 | 0.00 | 95 | 1009.1 |
| 20260509045519 | 72 | 158 | 0.9 | 4.3 | 0.00 | 0.01 | 0.01 | 94 | 1009.3 |
| 20260509045018 | 72 | 0 | 0.0 | 4.3 | 0.00 | 0.01 | 0.01 | 95 | 1009.2 |
| 20260509044534 | 72 | 0 | 0.9 | 4.3 | 0.00 | 0.01 | 0.01 | 94 | 1009.1 |
| 20260509044020 | 72 | 147 | 0.9 | 3.5 | 0.00 | 0.01 | 0.01 | 94 | 1009.0 |
| 20260509043517 | 72 | 162 | 0.9 | 4.3 | 0.00 | 0.01 | 0.01 | 94 | 1009.0 |
| 20260509043035 | 72 | 125 | 0.9 | 4.3 | 0.00 | 0.01 | 0.01 | 94 | 1009.0 |
| 20260509042519 | 72 | 171 | 0.9 | 3.5 | 0.00 | 0.01 | 0.01 | 94 | 1008.9 |
| 20260509042019 | 72 | 156 | 0.0 | 3.5 | 0.00 | 0.01 | 0.01 | 94 | 1009.0 |
| 20260509041535 | 72 | 156 | 0.9 | 3.5 | 0.00 | 0.01 | 0.01 | 94 | 1009.1 |
| 20260509041017 | 72 | 173 | 0.9 | 2.6 | 0.00 | 0.01 | 0.01 | 94 | 1009.1 |
| 20260509040519 | 72 | 190 | 0.9 | 3.5 | 0.00 | 0.01 | 0.01 | 94 | 1009.1 |
| 20260509040037 | 72 | 0 | 0.0 | 3.5 | 0.00 | 0.01 | 0.01 | 94 | 1009.0 |
| 20260509035516 | 72 | 160 | 0.0 | 2.6 | 0.00 | 0.01 | 0.01 | 94 | 1009.0 |
| 20260509035016 | 72 | 0 | 0.0 | 7.0 | 0.00 | 0.01 | 0.01 | 94 | 1009.0 |
| 20260509034535 | 72 | 0 | 0.0 | 7.8 | 0.00 | 0.01 | 0.01 | 94 | 1009.0 |
| 20260509034017 | 72 | 0 | 0.9 | 7.8 | 0.00 | 0.01 | 0.01 | 94 | 1009.1 |
| 20260509033519 | 72 | 175 | 0.9 | 4.3 | 0.00 | 0.01 | 0.01 | 94 | 1009.2 |
| 20260509033032 | 72 | 200 | 0.9 | 3.5 | 0.00 | 0.01 | 0.01 | 94 | 1008.8 |
| 20260509032516 | 72 | 162 | 0.9 | 5.2 | 0.00 | 0.01 | 0.01 | 94 | 1008.9 |
| 20260509032018 | 72 | 192 | 1.7 | 5.2 | 0.00 | 0.01 | 0.01 | 93 | 1008.7 |
| 20260509031536 | 72 | 0 | 0.9 | 3.5 | 0.00 | 0.01 | 0.01 | 93 | 1008.8 |
| 20260509031017 | 72 | 192 | 0.9 | 3.5 | 0.00 | 0.01 | 0.01 | 93 | 1008.8 |
| 20260509030517 | 72 | 174 | 0.9 | 3.5 | 0.00 | 0.01 | 0.01 | 93 | 1008.8 |
| 20260509030042 | 72 | 0 | 0.0 | 2.6 | 0.00 | 0.01 | 0.01 | 93 | 1008.6 |
| 20260509025518 | 72 | 0 | 0.0 | 2.6 | 0.00 | 0.01 | 0.01 | 93 | 1008.4 |
| 20260509025016 | 72 | 0 | 0.0 | 3.5 | 0.00 | 0.01 | 0.01 | 93 | 1008.5 |
| 20260509024537 | 72 | 0 | 0.9 | 3.5 | 0.00 | 0.01 | 0.01 | 92 | 1008.3 |
| 20260509024019 | 72 | 128 | 0.0 | 3.5 | 0.00 | 0.01 | 0.01 | 92 | 1008.2 |
| 20260509023516 | 73 | 0 | 0.0 | 1.7 | 0.00 | 0.01 | 0.01 | 92 | 1008.3 |
| 20260509023045 | 73 | 0 | 0.0 | 1.7 | 0.00 | 0.01 | 0.01 | 92 | 1008.4 |